Location: Unspecified
(58.7730°N, 5.8460°E)
Time: 09:53:29
(UTC+02:00)

CZ-3 Stage 3 - Visible Passes

Search period start: 29 July 2016 00:00
Search period end: 08 August 2016 00:00
Orbit: 467 x 34737 km, 30.5° (Epoch: 27 July)

Date Brightness Start Highest point End Pass type
(mag) Time Alt. Az. Time Alt. Az. Time Alt. Az.
30 Jul 5.6 22:54:21 10° WSW 23:31:09 21° SW 23:40:03 10° S visible
02 Aug 5.7 22:43:47 10° WSW 23:22:26 21° SW 23:31:31 10° S visible
05 Aug 5.7 22:33:06 10° WSW 23:13:42 21° SW 23:22:59 10° S visible
